M I D A S
Marine Information and Data Acquisition System
Tripno 2072 of the Zeeleeuw from 2011-04-05 07:06:15 to 2011-04-05 15:38:27
Back to CruiseResearch ActivitiesStationsMapUnderway DataData graphs

EquipmentUnitsComments
TimeDGPSUTC
LatitudeDGPSDM.mWGS84
LongitudeDGPSDM.mWGS84
SpeedMeteo Stationm/sRelative wind speed
DirectionMeteo StationdegRelative wind direction
TemperatureMeteo Stationdeg CelciusAir temperature
PressureMeteo StationPaAtmospheric pressure
HumidityMeteo Station%Relative humidity
Missing or incorrect values are displayed as -999
Metereological data collected by the RV Zeeleeuw from 2011-04-05 07:08:43 to 2011-04-05 15:46:28
                                                                                    Next 1000 lines
Time Latitude Longitude Speed Direction Temperature Pressure Humidity
2011-04-05 07:08:52 51°13.662 2°55.957 1.7 23 7.9 102270 40
2011-04-05 07:08:57 51°13.663 2°55.954 2.7 6 7.9 102270 40
2011-04-05 07:09:03 51°13.665 2°55.949 3 33 7.9 102270 39
2011-04-05 07:09:07 51°13.666 2°55.944 6 35 7.9 102270 39
2011-04-05 07:09:13 51°13.669 2°55.936 4 20 7.9 102270 41
2011-04-05 07:09:18 51°13.671 2°55.929 4.2 26 7.9 102270 41
2011-04-05 07:09:23 51°13.673 2°55.921 2.4 34 7.9 102260 41
2011-04-05 07:09:28 51°13.674 2°55.912 2.1 33 7.9 102260 41
2011-04-05 07:09:33 51°13.676 2°55.904 0.4 29 7.9 102270 41
2011-04-05 07:09:38 51°13.677 2°55.896 0.2 38 7.9 102270 41
2011-04-05 07:09:43 51°13.679 2°55.887 0.1 29 7.9 102270 41
2011-04-05 07:09:48 51°13.68 2°55.878 3.2 36 7.9 102270 41
2011-04-05 07:09:53 51°13.681 2°55.87 4.9 37 7.9 102270 40
2011-04-05 07:09:58 51°13.682 2°55.861 8.7 33 7.9 102270 40
2011-04-05 07:10:03 51°13.684 2°55.851 9.1 29 7.9 102270 38
2011-04-05 07:10:08 51°13.685 2°55.842 7.9 28 7.9 102270 38
2011-04-05 07:10:13 51°13.686 2°55.833 5.9 30 7.9 102270 40
2011-04-05 07:10:18 51°13.687 2°55.825 6.6 25 7.9 102270 40
2011-04-05 07:10:23 51°13.688 2°55.816 0.3 38 7.9 102260 41
2011-04-05 07:10:28 51°13.688 2°55.808 0.1 36 7.9 102260 41
2011-04-05 07:10:33 51°13.689 2°55.8 4.4 40 7.9 102270 41
2011-04-05 07:10:38 51°13.689 2°55.792 1.7 75 7.9 102270 41
2011-04-05 07:10:43 51°13.689 2°55.785 0.3 34 7.9 102260 40
2011-04-05 07:10:48 51°13.689 2°55.778 1.1 25 7.9 102260 40
2011-04-05 07:10:53 51°13.689 2°55.771 0.3 28 7.9 102270 38
2011-04-05 07:10:58 51°13.689 2°55.765 4.7 38 7.9 102270 38
2011-04-05 07:11:03 51°13.689 2°55.759 1.8 29 7.9 102270 39
2011-04-05 07:11:07 51°13.689 2°55.755 4.8 42 7.9 102270 39
2011-04-05 07:11:12 51°13.689 2°55.75 3 38 7.9 102270 38
2011-04-05 07:11:17 51°13.689 2°55.746 4.2 33 7.9 102270 38
2011-04-05 07:11:22 51°13.689 2°55.743 3.6 27 7.9 102270 39
2011-04-05 07:11:27 51°13.689 2°55.742 3.8 36 7.9 102270 39
2011-04-05 07:11:31 51°13.689 2°55.74 1 43 8 102270 38
2011-04-05 07:11:37 51°13.69 2°55.739 3 75 8 102270 38
2011-04-05 07:11:41 51°13.69 2°55.738 1.3 39 8 102270 38
2011-04-05 07:11:47 51°13.691 2°55.738 4.5 41 8 102270 38
2011-04-05 07:11:51 51°13.691 2°55.737 2.3 39 8 102270 39
2011-04-05 07:11:56 51°13.692 2°55.737 2.9 79 8 102270 39
2011-04-05 07:12:01 51°13.693 2°55.738 0.3 42 8 102270 40
2011-04-05 07:12:06 51°13.695 2°55.738 0.1 44 8 102270 40
2011-04-05 07:12:11 51°13.697 2°55.739 0.1 21 8 102270 42
2011-04-05 07:12:15 51°13.698 2°55.739 0.1 78 8 102270 42
2011-04-05 07:12:20 51°13.701 2°55.739 -999 23 8 102270 40
2011-04-05 07:12:25 51°13.703 2°55.739 -999 78 8 102270 40
2011-04-05 07:12:30 51°13.706 2°55.739 -999 23 8 102270 40
2011-04-05 07:12:35 51°13.709 2°55.739 -999 78 8 102270 40
2011-04-05 07:12:39 51°13.711 2°55.738 -999 23 8 102270 39
2011-04-05 07:12:44 51°13.714 2°55.737 -999 78 8 102270 39
2011-04-05 07:12:49 51°13.717 2°55.735 -999 23 8 102270 40
2011-04-05 07:12:55 51°13.722 2°55.733 -999 78 8 102270 40
2011-04-05 07:12:59 51°13.725 2°55.73 -999 25 8 102270 40
2011-04-05 07:13:04 51°13.729 2°55.727 -999 78 8 102270 40
2011-04-05 07:13:09 51°13.734 2°55.723 -999 266 8 102270 40
2011-04-05 07:13:15 51°13.741 2°55.717 2.6 283 8 102270 40
2011-04-05 07:13:19 51°13.746 2°55.713 2.3 23 8 102270 41
2011-04-05 07:13:24 51°13.753 2°55.707 2.5 280 8 102270 41
2011-04-05 07:13:29 51°13.76 2°55.7 2.3 246 8.1 102270 40
2011-04-05 07:13:34 51°13.768 2°55.693 1.3 286 8.1 102270 40
2011-04-05 07:13:39 51°13.776 2°55.685 2.5 266 8.1 102270 40
2011-04-05 07:13:44 51°13.784 2°55.677 1.4 283 8.1 102270 40
2011-04-05 07:13:50 51°13.794 2°55.668 3.5 268 8.1 102270 45
2011-04-05 07:13:55 51°13.803 2°55.659 4 288 8.1 102270 45
2011-04-05 07:13:59 51°13.811 2°55.652 8.1 28 8.1 102270 42
2011-04-05 07:14:04 51°13.821 2°55.644 4.9 283 8.1 102270 42
2011-04-05 07:14:09 51°13.831 2°55.635 1.9 270 8 102280 41
2011-04-05 07:14:15 51°13.844 2°55.625 2.5 285 8 102280 41
2011-04-05 07:14:19 51°13.853 2°55.619 0.3 252 8 102280 41
2011-04-05 07:14:25 51°13.867 2°55.608 1.8 279 8 102280 41
2011-04-05 07:14:31 51°13.881 2°55.598 0.2 30 8 102270 38
2011-04-05 07:14:36 51°13.893 2°55.589 0.1 282 8 102270 38
2011-04-05 07:14:41 51°13.905 2°55.58 0.4 17 8 102270 38
2011-04-05 07:14:46 51°13.917 2°55.57 2.5 285 8 102270 38
2011-04-05 07:14:51 51°13.929 2°55.56 0.3 27 8 102270 40
2011-04-05 07:14:56 51°13.941 2°55.551 0.2 282 8 102270 40
2011-04-05 07:15:01 51°13.953 2°55.541 0.1 23 8 102270 41
2011-04-05 07:15:06 51°13.966 2°55.532 -999 283 8 102270 41
2011-04-05 07:15:11 51°13.978 2°55.523 2 251 8 102270 40
2011-04-05 07:15:16 51°13.991 2°55.513 0.3 282 8 102270 40
2011-04-05 07:15:21 51°14.003 2°55.504 2.9 20 8 102260 39
2011-04-05 07:15:26 51°14.016 2°55.495 2.9 282 8 102260 39
2011-04-05 07:15:31 51°14.029 2°55.486 0.6 20 8 102260 40
2011-04-05 07:15:35 51°14.04 2°55.478 0.1 283 8 102260 40
2011-04-05 07:15:41 51°14.055 2°55.467 0.2 247 8 102260 38
2011-04-05 07:15:47 51°14.07 2°55.455 0.1 283 8 102260 38
2011-04-05 07:15:51 51°14.08 2°55.448 -999 253 8.1 102260 40
2011-04-05 07:15:56 51°14.093 2°55.437 -999 283 8.1 102260 40
2011-04-05 07:16:01 51°14.106 2°55.427 -999 262 8 102260 40
2011-04-05 07:16:07 51°14.121 2°55.414 -999 283 8 102260 40
2011-04-05 07:16:11 51°14.132 2°55.406 -999 23 8 102260 40
2011-04-05 07:16:17 51°14.147 2°55.393 -999 282 8 102260 40
2011-04-05 07:16:22 51°14.16 2°55.382 0.1 18 8 102260 40
2011-04-05 07:16:27 51°14.174 2°55.37 0.1 283 8 102260 40
2011-04-05 07:16:32 51°14.187 2°55.36 0.1 23 8 102260 40
2011-04-05 07:16:38 51°14.203 2°55.346 -999 282 8 102260 40
2011-04-05 07:16:43 51°14.216 2°55.334 -999 259 8 102260 40
2011-04-05 07:16:47 51°14.227 2°55.324 -999 77 8 102260 40
2011-04-05 07:16:53 51°14.243 2°55.31 -999 256 8 102260 40
2011-04-05 07:16:58 51°14.256 2°55.296 -999 283 8 102260 40
2011-04-05 07:17:03 51°14.269 2°55.284 -999 320 8 102260 40
2011-04-05 07:17:08 51°14.282 2°55.27 -999 283 8 102260 40
2011-04-05 07:17:13 51°14.295 2°55.257 -999 23 8 102260 40
2011-04-05 07:17:18 51°14.308 2°55.243 -999 283 8 102260 40
2011-04-05 07:17:23 51°14.322 2°55.23 -999 316 8 102260 40
2011-04-05 07:17:28 51°14.335 2°55.216 -999 283 8 102260 40
2011-04-05 07:17:32 51°14.346 2°55.206 -999 252 8 102250 40
2011-04-05 07:17:38 51°14.362 2°55.189 -999 282 8 102250 40
2011-04-05 07:17:43 51°14.376 2°55.176 -999 23 8 102250 40
2011-04-05 07:17:47 51°14.387 2°55.164 -999 282 8 102250 40
2011-04-05 07:17:52 51°14.401 2°55.151 -999 250 8 102250 40
2011-04-05 07:17:57 51°14.415 2°55.137 -999 283 8 102250 40
2011-04-05 07:18:02 51°14.43 2°55.124 -999 23 8 102250 39
2011-04-05 07:18:07 51°14.444 2°55.109 -999 282 8 102250 39
2011-04-05 07:18:12 51°14.458 2°55.096 -999 251 8 102250 40
2011-04-05 07:18:17 51°14.472 2°55.081 -999 283 8 102250 40
2011-04-05 07:18:23 51°14.489 2°55.064 -999 264 8 102250 40
2011-04-05 07:18:27 51°14.501 2°55.053 -999 282 8 102250 40
2011-04-05 07:18:32 51°14.515 2°55.038 -999 254 8 102240 40
2011-04-05 07:18:37 51°14.529 2°55.023 -999 282 8 102240 40
2011-04-05 07:18:42 51°14.544 2°55.007 -999 247 8 102240 40
2011-04-05 07:18:47 51°14.558 2°54.991 -999 283 8 102240 40
2011-04-05 07:18:52 51°14.571 2°54.972 -999 23 8 102250 40
2011-04-05 07:18:57 51°14.583 2°54.951 -999 283 8 102250 40
2011-04-05 07:19:01 51°14.593 2°54.935 -999 251 8 102250 40
2011-04-05 07:19:06 51°14.604 2°54.914 -999 282 8 102250 40
2011-04-05 07:19:11 51°14.616 2°54.891 7.1 247 8 102240 40
2011-04-05 07:19:16 51°14.626 2°54.868 7 281 8 102240 40
2011-04-05 07:19:21 51°14.636 2°54.844 8.2 246 8 102240 40
2011-04-05 07:19:26 51°14.645 2°54.819 6.6 286 8 102240 40
2011-04-05 07:19:31 51°14.653 2°54.793 7 20 8.1 102230 41
2011-04-05 07:19:35 51°14.658 2°54.771 8.2 279 8.1 102230 41
2011-04-05 07:19:40 51°14.664 2°54.743 9.3 22 8.1 102230 41
2011-04-05 07:19:45 51°14.668 2°54.715 9.1 279 8.1 102230 41
2011-04-05 07:19:50 51°14.67 2°54.686 8.7 23 8.1 102220 41
2011-04-05 07:19:55 51°14.672 2°54.657 11.3 282 8.1 102220 41
2011-04-05 07:19:59 51°14.673 2°54.633 12 22 8.1 102220 41
2011-04-05 07:20:04 51°14.672 2°54.603 12.2 287 8.1 102220 41
2011-04-05 07:20:09 51°14.67 2°54.574 13.5 22 8.1 102220 41
2011-04-05 07:20:14 51°14.666 2°54.545 12.4 282 8.1 102220 41
2011-04-05 07:20:19 51°14.662 2°54.517 13.6 22 8.1 102210 41
2011-04-05 07:20:24 51°14.656 2°54.489 13.9 283 8.1 102210 41
2011-04-05 07:20:29 51°14.649 2°54.462 11.1 25 8.1 102200 40
2011-04-05 07:20:34 51°14.64 2°54.435 12.2 283 8.1 102200 40
2011-04-05 07:20:39 51°14.631 2°54.409 12.4 321 8.1 102190 39
2011-04-05 07:20:44 51°14.622 2°54.384 13 282 8.1 102190 39
2011-04-05 07:20:50 51°14.609 2°54.354 12.9 25 8.1 102190 39
2011-04-05 07:20:55 51°14.598 2°54.329 11.6 280 8.1 102190 39
2011-04-05 07:20:59 51°14.59 2°54.309 16.2 23 8.1 102190 39
2011-04-05 07:21:04 51°14.579 2°54.285 10.9 280 8.1 102190 39
2011-04-05 07:21:09 51°14.568 2°54.26 11.7 316 8.1 102190 41
2011-04-05 07:21:15 51°14.555 2°54.229 12.2 284 8.1 102190 41
2011-04-05 07:21:19 51°14.547 2°54.209 11.2 316 8.1 102180 40
2011-04-05 07:21:24 51°14.537 2°54.183 12.3 282 8.1 102180 40
2011-04-05 07:21:30 51°14.525 2°54.152 13.5 22 8.1 102190 40
2011-04-05 07:21:35 51°14.516 2°54.125 16.1 282 8.1 102190 40
2011-04-05 07:21:39 51°14.508 2°54.104 11.8 21 8.1 102180 39
2011-04-05 07:21:44 51°14.499 2°54.077 16.9 279 8.1 102180 39
2011-04-05 07:21:49 51°14.489 2°54.051 13.2 20 8.2 102180 40
2011-04-05 07:21:55 51°14.477 2°54.02 16.3 282 8.2 102180 40
2011-04-05 07:21:59 51°14.469 2°53.999 18.6 316 8.2 102170 41
2011-04-05 07:22:04 51°14.458 2°53.974 17.1 280 8.2 102170 41
2011-04-05 07:22:09 51°14.447 2°53.949 15.5 22 8.2 102180 40
2011-04-05 07:22:15 51°14.433 2°53.919 16.6 286 8.2 102180 40
2011-04-05 07:22:19 51°14.424 2°53.9 15.4 317 8.2 102170 41
2011-04-05 07:22:24 51°14.411 2°53.877 13.2 279 8.2 102170 41
2011-04-05 07:22:29 51°14.399 2°53.854 14.8 317 8.2 102170 40
2011-04-05 07:22:34 51°14.387 2°53.83 17.4 283 8.2 102170 40
2011-04-05 07:22:39 51°14.374 2°53.807 12.9 318 8.2 102160 40
2011-04-05 07:22:44 51°14.361 2°53.784 12.9 286 8.2 102160 40
2011-04-05 07:22:49 51°14.349 2°53.761 15.6 321 8.2 102180 41
2011-04-05 07:22:54 51°14.336 2°53.739 13.1 280 8.2 102180 41
2011-04-05 07:22:59 51°14.324 2°53.715 17.7 321 8.2 102170 40
2011-04-05 07:23:04 51°14.311 2°53.692 15.8 286 8.2 102170 40
2011-04-05 07:23:10 51°14.296 2°53.664 18.5 320 8.2 102170 40
2011-04-05 07:23:15 51°14.283 2°53.641 15.2 282 8.2 102170 40
2011-04-05 07:23:19 51°14.273 2°53.622 16.9 316 8.2 102180 39
2011-04-05 07:23:24 51°14.261 2°53.599 13 284 8.2 102180 39
2011-04-05 07:23:29 51°14.249 2°53.575 13 316 8.2 102170 41
2011-04-05 07:23:35 51°14.235 2°53.546 17.9 286 8.2 102170 41
2011-04-05 07:23:39 51°14.226 2°53.526 18.4 21 8.2 102170 40
2011-04-05 07:23:44 51°14.215 2°53.501 13.3 282 8.2 102170 40
2011-04-05 07:23:50 51°14.202 2°53.47 15.1 317 8.2 102170 40
2011-04-05 07:23:55 51°14.192 2°53.444 13.6 282 8.2 102170 40
2011-04-05 07:23:59 51°14.185 2°53.423 18.2 315 8.2 102160 40
2011-04-05 07:24:04 51°14.175 2°53.396 13 281 8.2 102160 40
2011-04-05 07:24:09 51°14.167 2°53.369 15.6 315 8.2 102170 40
2011-04-05 07:24:15 51°14.156 2°53.336 14 283 8.2 102170 40
2011-04-05 07:24:19 51°14.149 2°53.314 13.7 24 8.2 102170 40
2011-04-05 07:24:24 51°14.14 2°53.287 12.3 285 8.2 102170 40
2011-04-05 07:24:29 51°14.131 2°53.26 13.7 24 8.2 102170 40
2011-04-05 07:24:35 51°14.12 2°53.228 12 283 8.2 102170 40
2011-04-05 07:24:39 51°14.112 2°53.207 11.9 20 8.2 102160 40
2011-04-05 07:24:44 51°14.101 2°53.181 14.2 286 8.2 102160 40
2011-04-05 07:24:49 51°14.09 2°53.156 16.9 317 8.2 102160 40
2011-04-05 07:24:54 51°14.079 2°53.131 12.7 286 8.2 102160 40
2011-04-05 07:24:59 51°14.067 2°53.107 16 315 8.2 102180 40
2011-04-05 07:25:04 51°14.055 2°53.082 19.2 281 8.2 102180 40
2011-04-05 07:25:09 51°14.044 2°53.057 15.9 317 8.3 102170 39
2011-04-05 07:25:14 51°14.032 2°53.033 12.9 280 8.3 102170 39
2011-04-05 07:25:19 51°14.02 2°53.009 14.9 315 8.3 102170 40
2011-04-05 07:25:24 51°14.008 2°52.984 17.1 281 8.3 102170 40
2011-04-05 07:25:29 51°13.997 2°52.959 11.8 22 8.2 102170 40
2011-04-05 07:25:35 51°13.984 2°52.928 12.5 283 8.2 102170 40
2011-04-05 07:25:39 51°13.975 2°52.908 14.8 20 8.2 102170 41
2011-04-05 07:25:44 51°13.965 2°52.881 13.6 285 8.2 102170 41
2011-04-05 07:25:49 51°13.955 2°52.855 13.8 22 8.2 102170 40
2011-04-05 07:25:55 51°13.943 2°52.823 12.7 284 8.2 102170 40
2011-04-05 07:25:59 51°13.935 2°52.802 14.4 22 8.2 102170 39
2011-04-05 07:26:04 51°13.925 2°52.775 13 282 8.2 102170 39
2011-04-05 07:26:09 51°13.915 2°52.749 16.2 315 8.2 102180 40
2011-04-05 07:26:15 51°13.903 2°52.718 11.9 278 8.2 102180 40
2011-04-05 07:26:19 51°13.894 2°52.697 14.1 316 8.2 102180 41
2011-04-05 07:26:24 51°13.883 2°52.671 12.3 287 8.2 102180 41
2011-04-05 07:26:29 51°13.872 2°52.646 12.6 22 8.2 102170 39
2011-04-05 07:26:34 51°13.861 2°52.621 13.5 287 8.2 102170 39
2011-04-05 07:26:39 51°13.849 2°52.596 13.5 318 8.2 102180 41
2011-04-05 07:26:44 51°13.837 2°52.572 15.5 279 8.2 102180 41
2011-04-05 07:26:49 51°13.825 2°52.547 14.9 23 8.3 102170 40
2011-04-05 07:26:55 51°13.811 2°52.518 15 282 8.3 102170 40
2011-04-05 07:26:59 51°13.801 2°52.499 12.3 24 8.3 102180 41
2011-04-05 07:27:04 51°13.79 2°52.474 14.5 282 8.3 102180 41
2011-04-05 07:27:09 51°13.778 2°52.449 14.5 319 8.2 102160 40
2011-04-05 07:27:15 51°13.764 2°52.42 12 285 8.2 102160 40
2011-04-05 07:27:19 51°13.754 2°52.4 12.4 318 8.3 102170 40
2011-04-05 07:27:24 51°13.743 2°52.375 18.5 283 8.3 102170 40
2011-04-05 07:27:30 51°13.729 2°52.345 12.3 316 8.3 102170 40
2011-04-05 07:27:35 51°13.717 2°52.32 16.6 286 8.3 102170 40
2011-04-05 07:27:39 51°13.708 2°52.301 14.3 315 8.3 102170 40
2011-04-05 07:27:44 51°13.696 2°52.276 12.7 279 8.3 102170 40
2011-04-05 07:27:49 51°13.685 2°52.251 15 21 8.3 102170 40
2011-04-05 07:27:55 51°13.671 2°52.22 13.7 278 8.3 102170 40
2011-04-05 07:27:59 51°13.663 2°52.2 13.8 316 8.3 102170 41
2011-04-05 07:28:04 51°13.652 2°52.173 18.2 283 8.3 102170 41
2011-04-05 07:28:10 51°13.64 2°52.142 18.1 21 8.3 102180 41
2011-04-05 07:28:15 51°13.63 2°52.115 18.1 284 8.3 102180 41
2011-04-05 07:28:19 51°13.622 2°52.094 13.8 21 8.3 102180 40
2011-04-05 07:28:24 51°13.612 2°52.068 13.8 280 8.3 102180 40
2011-04-05 07:28:29 51°13.601 2°52.041 14.8 315 8.3 102170 40
2011-04-05 07:28:34 51°13.59 2°52.016 15.2 285 8.3 102170 40
2011-04-05 07:28:39 51°13.579 2°51.991 14.5 22 8.3 102160 39
2011-04-05 07:28:44 51°13.568 2°51.966 13 282 8.3 102160 39
2011-04-05 07:28:49 51°13.556 2°51.941 12 315 8.3 102170 40
2011-04-05 07:28:54 51°13.545 2°51.916 12.6 285 8.3 102170 40
2011-04-05 07:28:59 51°13.533 2°51.891 14.1 315 8.3 102180 41
2011-04-05 07:29:04 51°13.522 2°51.866 15.6 279 8.3 102180 41
2011-04-05 07:29:09 51°13.511 2°51.84 11.1 22 8.3 102180 40
2011-04-05 07:29:15 51°13.499 2°51.809 16.8 283 8.3 102180 40
2011-04-05 07:29:19 51°13.491 2°51.788 11 316 8.3 102180 41
2011-04-05 07:29:24 51°13.48 2°51.761 14.2 283 8.3 102180 41
2011-04-05 07:29:29 51°13.47 2°51.734 12.4 316 8.3 102190 40
2011-04-05 07:29:35 51°13.458 2°51.703 15.9 284 8.3 102190 40
2011-04-05 07:29:39 51°13.45 2°51.682 13.8 316 8.3 102180 41
2011-04-05 07:29:44 51°13.439 2°51.656 17.3 283 8.3 102180 41
2011-04-05 07:29:49 51°13.428 2°51.63 16.3 27 8.3 102180 40
2011-04-05 07:29:55 51°13.415 2°51.599 11.3 287 8.3 102180 40
2011-04-05 07:29:59 51°13.406 2°51.579 12.9 317 8.3 102170 41
2011-04-05 07:30:04 51°13.395 2°51.554 13.8 285 8.3 102170 41
2011-04-05 07:30:09 51°13.383 2°51.529 12.1 316 8.3 102170 41
2011-04-05 07:30:15 51°13.369 2°51.499 13.8 285 8.3 102170 41
2011-04-05 07:30:19 51°13.359 2°51.479 17 316 8.3 102180 41
2011-04-05 07:30:24 51°13.348 2°51.454 15.1 284 8.3 102180 41
2011-04-05 07:30:29 51°13.336 2°51.429 12.9 24 8.3 102180 41
2011-04-05 07:30:35 51°13.323 2°51.399 13.7 283 8.3 102180 41
2011-04-05 07:30:39 51°13.314 2°51.379 17.2 316 8.3 102180 40
2011-04-05 07:30:44 51°13.303 2°51.353 12.5 280 8.3 102180 40
2011-04-05 07:30:49 51°13.292 2°51.327 14.1 23 8.3 102180 41
2011-04-05 07:30:55 51°13.28 2°51.295 13.7 282 8.3 102180 41
2011-04-05 07:30:59 51°13.272 2°51.274 12.4 21 8.3 102170 41
2011-04-05 07:31:04 51°13.261 2°51.248 13.9 279 8.3 102170 41
2011-04-05 07:31:09 51°13.251 2°51.221 13.4 315 8.3 102170 41
2011-04-05 07:31:14 51°13.24 2°51.195 12.3 -999 8.3 102170 41
2011-04-05 07:31:19 51°13.23 2°51.168 15.4 22 8.3 102180 39
2011-04-05 07:31:24 51°13.219 2°51.142 14.3 279 8.3 102180 39
2011-04-05 07:31:29 51°13.209 2°51.116 13.4 315 8.3 102170 40
2011-04-05 07:31:35 51°13.195 2°51.085 13.9 284 8.3 102170 40
2011-04-05 07:31:39 51°13.186 2°51.065 18.8 317 8.3 102180 41
2011-04-05 07:31:44 51°13.175 2°51.039 12.8 286 8.3 102180 41
2011-04-05 07:31:49 51°13.164 2°51.014 12.9 315 8.3 102170 41
2011-04-05 07:31:55 51°13.149 2°50.984 13.6 280 8.3 102170 41
2011-04-05 07:31:59 51°13.14 2°50.964 14.8 316 8.3 102180 41
2011-04-05 07:32:04 51°13.129 2°50.939 17.2 283 8.3 102180 41
2011-04-05 07:32:09 51°13.117 2°50.914 18.6 317 8.3 102180 41
2011-04-05 07:32:15 51°13.104 2°50.884 14.5 -999 8.3 102180 41
2011-04-05 07:32:19 51°13.094 2°50.864 13 317 8.3 102170 41
2011-04-05 07:32:24 51°13.083 2°50.838 13.8 278 8.3 102170 41
2011-04-05 07:32:30 51°13.071 2°50.807 15.2 22 8.3 102190 41
2011-04-05 07:32:35 51°13.06 2°50.781 15.3 280 8.3 102190 41
2011-04-05 07:32:39 51°13.052 2°50.76 13.4 24 8.3 102180 40
2011-04-05 07:32:44 51°13.042 2°50.733 14.2 282 8.3 102180 40
2011-04-05 07:32:49 51°13.031 2°50.708 12.9 316 8.3 102180 40
2011-04-05 07:32:54 51°13.02 2°50.682 16.8 284 8.3 102180 40
2011-04-05 07:32:59 51°13.009 2°50.656 11.8 317 8.3 102180 41
2011-04-05 07:33:04 51°12.998 2°50.631 12.5 277 8.3 102180 41
2011-04-05 07:33:09 51°12.987 2°50.605 12 317 8.3 102180 41
2011-04-05 07:33:15 51°12.973 2°50.574 17 -999 8.3 102180 41
2011-04-05 07:33:19 51°12.964 2°50.554 16.3 22 8.3 102180 40
2011-04-05 07:33:24 51°12.954 2°50.529 14.3 282 8.3 102180 40
2011-04-05 07:33:29 51°12.942 2°50.503 12.3 316 8.3 102180 40
2011-04-05 07:33:34 51°12.932 2°50.477 14.7 279 8.3 102180 40
2011-04-05 07:33:39 51°12.921 2°50.45 16 318 8.3 102180 41
2011-04-05 07:33:44 51°12.911 2°50.424 12.8 278 8.3 102180 41
2011-04-05 07:33:49 51°12.901 2°50.398 18.2 316 8.3 102180 41
2011-04-05 07:33:54 51°12.891 2°50.371 12.3 283 8.3 102180 41
2011-04-05 07:33:59 51°12.88 2°50.345 11.9 316 8.3 102180 40
2011-04-05 07:34:04 51°12.87 2°50.319 13 281 8.3 102180 40
2011-04-05 07:34:09 51°12.859 2°50.293 12.1 315 8.3 102180 41
2011-04-05 07:34:14 51°12.849 2°50.266 12.8 -999 8.3 102180 41
2011-04-05 07:34:19 51°12.838 2°50.24 13.7 317 8.3 102190 41
2011-04-05 07:34:24 51°12.828 2°50.215 16.9 280 8.3 102190 41
2011-04-05 07:34:29 51°12.817 2°50.189 14.4 22 8.3 102190 41
2011-04-05 07:34:34 51°12.806 2°50.163 12.6 287 8.3 102190 41
2011-04-05 07:34:39 51°12.795 2°50.137 11.9 315 8.3 102190 41
2011-04-05 07:34:43 51°12.787 2°50.116 13.5 284 8.3 102190 41
2011-04-05 07:34:49 51°12.775 2°50.084 12.2 23 8.3 102190 41
2011-04-05 07:34:54 51°12.766 2°50.057 14.6 282 8.3 102190 41
2011-04-05 07:34:59 51°12.756 2°50.03 10.9 25 8.3 102200 41
2011-04-05 07:35:03 51°12.749 2°50.008 13.1 287 8.3 102200 41
2011-04-05 07:35:09 51°12.738 2°49.975 12.1 19 8.3 102180 40
2011-04-05 07:35:14 51°12.729 2°49.948 10.8 -999 8.3 102180 40
2011-04-05 07:35:19 51°12.72 2°49.92 11.1 25 8.3 102190 41
2011-04-05 07:35:24 51°12.71 2°49.893 12.1 284 8.3 102190 41
2011-04-05 07:35:29 51°12.701 2°49.866 14.8 20 8.3 102190 41
2011-04-05 07:35:34 51°12.691 2°49.839 13.6 278 8.3 102190 41
2011-04-05 07:35:39 51°12.682 2°49.812 13.8 25 8.3 102200 41
2011-04-05 07:35:44 51°12.672 2°49.786 11.9 283 8.3 102200 41
2011-04-05 07:35:49 51°12.662 2°49.759 13.2 319 8.3 102190 41
2011-04-05 07:35:54 51°12.651 2°49.733 12.3 280 8.3 102190 41
2011-04-05 07:35:59 51°12.64 2°49.707 12.2 316 8.3 102190 41
2011-04-05 07:36:04 51°12.63 2°49.681 13.1 279 8.3 102190 41
2011-04-05 07:36:09 51°12.619 2°49.655 13.4 22 8.3 102190 41
2011-04-05 07:36:14 51°12.609 2°49.629 17 -999 8.3 102190 41
2011-04-05 07:36:19 51°12.599 2°49.603 12.4 20 8.3 102190 41
2011-04-05 07:36:24 51°12.589 2°49.576 11.8 284 8.3 102190 41
2011-04-05 07:36:29 51°12.58 2°49.549 15.7 21 8.3 102190 41
2011-04-05 07:36:34 51°12.57 2°49.522 13.1 280 8.3 102190 41
2011-04-05 07:36:39 51°12.561 2°49.495 11.4 317 8.3 102180 39
2011-04-05 07:36:43 51°12.553 2°49.473 10.4 285 8.3 102180 39
2011-04-05 07:36:49 51°12.542 2°49.441 11.7 315 8.3 102190 41
2011-04-05 07:36:54 51°12.533 2°49.414 13.9 286 8.3 102190 41
2011-04-05 07:36:59 51°12.523 2°49.387 11.5 317 8.3 102170 41
2011-04-05 07:37:04 51°12.513 2°49.361 17.2 284 8.3 102170 41
2011-04-05 07:37:10 51°12.501 2°49.329 15.2 317 8.3 102200 41
2011-04-05 07:37:15 51°12.491 2°49.303 12 -999 8.3 102200 41
2011-04-05 07:37:19 51°12.483 2°49.282 14.4 318 8.3 102190 41
2011-04-05 07:37:24 51°12.472 2°49.256 12.9 285 8.3 102190 41
2011-04-05 07:37:29 51°12.462 2°49.229 15 315 8.3 102180 41
2011-04-05 07:37:34 51°12.451 2°49.203 14.9 285 8.3 102180 41
2011-04-05 07:37:39 51°12.441 2°49.178 11.7 20 8.3 102190 41
2011-04-05 07:37:43 51°12.433 2°49.157 14.3 283 8.3 102190 41
2011-04-05 07:37:49 51°12.42 2°49.126 14.4 25 8.3 102190 40
2011-04-05 07:37:54 51°12.41 2°49.099 12.1 282 8.3 102190 40
2011-04-05 07:37:59 51°12.401 2°49.072 10.3 317 8.3 102180 40
2011-04-05 07:38:04 51°12.392 2°49.045 11.2 284 8.3 102180 40
2011-04-05 07:38:09 51°12.383 2°49.017 11.2 24 8.3 102190 42
2011-04-05 07:38:14 51°12.375 2°48.989 11.6 -999 8.3 102190 42
2011-04-05 07:38:19 51°12.368 2°48.961 11.6 27 8.4 102190 40
2011-04-05 07:38:24 51°12.36 2°48.932 12.4 284 8.4 102190 40
2011-04-05 07:38:29 51°12.354 2°48.903 10.9 25 8.4 102200 40
2011-04-05 07:38:34 51°12.348 2°48.873 11.9 285 8.4 102200 40
2011-04-05 07:38:39 51°12.341 2°48.844 12.5 24 8.4 102190 40
2011-04-05 07:38:43 51°12.336 2°48.821 11.8 282 8.4 102190 40
2011-04-05 07:38:49 51°12.329 2°48.785 12.7 25 8.4 102190 41
2011-04-05 07:38:54 51°12.322 2°48.756 13 279 8.4 102190 41
2011-04-05 07:38:59 51°12.316 2°48.726 12.8 24 8.4 102190 40
2011-04-05 07:39:04 51°12.309 2°48.697 9.8 282 8.4 102190 40
2011-04-05 07:39:09 51°12.302 2°48.668 12 21 8.4 102200 40
2011-04-05 07:39:15 51°12.294 2°48.633 11.8 -999 8.4 102200 40
2011-04-05 07:39:19 51°12.288 2°48.609 11.7 23 8.4 102190 40
2011-04-05 07:39:24 51°12.281 2°48.58 11.2 285 8.4 102190 40
2011-04-05 07:39:29 51°12.274 2°48.552 13.7 23 8.4 102200 40
2011-04-05 07:39:34 51°12.267 2°48.523 13.9 282 8.4 102200 40
2011-04-05 07:39:39 51°12.26 2°48.494 12 21 8.4 102210 41
2011-04-05 07:39:43 51°12.254 2°48.471 10.5 286 8.4 102210 41
2011-04-05 07:39:49 51°12.246 2°48.436 13.6 21 8.4 102200 41
2011-04-05 07:39:54 51°12.238 2°48.407 11.6 283 8.4 102200 41
2011-04-05 07:39:59 51°12.23 2°48.378 10.8 23 8.4 102200 41
2011-04-05 07:40:04 51°12.223 2°48.35 12.1 282 8.4 102200 41
2011-04-05 07:40:09 51°12.215 2°48.321 12 27 8.4 102200 41
2011-04-05 07:40:14 51°12.207 2°48.292 12.7 -999 8.4 102200 41
2011-04-05 07:40:19 51°12.2 2°48.263 10.4 23 8.4 102200 41
2011-04-05 07:40:24 51°12.193 2°48.234 13.4 278 8.4 102200 41
2011-04-05 07:40:29 51°12.186 2°48.204 12 315 8.4 102210 40
2011-04-05 07:40:34 51°12.18 2°48.175 13.4 284 8.4 102210 40
2011-04-05 07:40:39 51°12.173 2°48.145 13.8 24 8.4 102210 40
2011-04-05 07:40:43 51°12.168 2°48.122 12.8 281 8.4 102210 40
2011-04-05 07:40:49 51°12.16 2°48.087 13.6 22 8.4 102210 41
2011-04-05 07:40:54 51°12.154 2°48.057 13.2 285 8.4 102210 41
2011-04-05 07:40:59 51°12.147 2°48.027 16.4 22 8.4 102200 40
2011-04-05 07:41:04 51°12.141 2°47.998 15.3 281 8.4 102200 40
2011-04-05 07:41:09 51°12.134 2°47.969 15.3 23 8.5 102200 41
2011-04-05 07:41:14 51°12.127 2°47.94 13 -999 8.5 102200 41
2011-04-05 07:41:19 51°12.12 2°47.911 14.3 25 8.5 102200 40
2011-04-05 07:41:24 51°12.112 2°47.882 11.7 280 8.5 102200 40
2011-04-05 07:41:29 51°12.105 2°47.853 10.7 315 8.4 102200 40
2011-04-05 07:41:34 51°12.099 2°47.824 13.2 286 8.4 102200 40
2011-04-05 07:41:39 51°12.092 2°47.794 10.7 22 8.5 102200 41
2011-04-05 07:41:43 51°12.086 2°47.771 10.9 285 8.5 102200 41
2011-04-05 07:41:49 51°12.078 2°47.736 10.7 25 8.5 102200 41
2011-04-05 07:41:54 51°12.072 2°47.707 13.8 283 8.5 102200 41
2011-04-05 07:41:59 51°12.065 2°47.678 11.8 315 8.5 102210 39
2011-04-05 07:42:03 51°12.06 2°47.654 11.9 283 8.5 102210 39
2011-04-05 07:42:09 51°12.051 2°47.619 11.4 24 8.5 102210 41
2011-04-05 07:42:14 51°12.044 2°47.59 10.5 -999 8.5 102210 41
2011-04-05 07:42:19 51°12.037 2°47.561 13.7 21 8.5 102210 41
2011-04-05 07:42:24 51°12.029 2°47.532 10.3 280 8.5 102210 41
2011-04-05 07:42:29 51°12.021 2°47.503 12.4 27 8.5 102200 40
2011-04-05 07:42:34 51°12.014 2°47.474 12.7 282 8.5 102200 40
2011-04-05 07:42:39 51°12.006 2°47.445 12.3 24 8.5 102200 41
2011-04-05 07:42:43 51°12.001 2°47.422 11.2 286 8.5 102200 41
2011-04-05 07:42:49 51°11.992 2°47.387 13.3 315 8.5 102200 41
2011-04-05 07:42:54 51°11.985 2°47.358 12.9 282 8.5 102200 41
2011-04-05 07:42:59 51°11.978 2°47.328 11.1 316 8.5 102200 40
2011-04-05 07:43:04 51°11.972 2°47.299 11.3 284 8.5 102200 40
2011-04-05 07:43:09 51°11.965 2°47.269 14.9 316 8.6 102210 40
2011-04-05 07:43:14 51°11.958 2°47.24 15.6 -999 8.6 102210 40
2011-04-05 07:43:19 51°11.952 2°47.21 7.1 316 8.6 102200 41
2011-04-05 07:43:23 51°11.946 2°47.187 15.1 281 8.6 102200 41
2011-04-05 07:43:29 51°11.938 2°47.151 17 316 8.6 102210 40
2011-04-05 07:43:34 51°11.931 2°47.122 12.2 284 8.6 102210 40
2011-04-05 07:43:39 51°11.924 2°47.093 13.2 317 8.6 102200 40
2011-04-05 07:43:44 51°11.917 2°47.064 15 282 8.6 102200 40
2011-04-05 07:43:49 51°11.91 2°47.034 17.6 27 8.6 102190 41
2011-04-05 07:43:54 51°11.903 2°47.005 12.5 279 8.6 102190 41
2011-04-05 07:43:59 51°11.896 2°46.976 15.9 26 8.6 102200 40
2011-04-05 07:44:03 51°11.89 2°46.952 11.5 285 8.6 102200 40
2011-04-05 07:44:09 51°11.882 2°46.917 13.4 23 8.6 102190 40
2011-04-05 07:44:14 51°11.875 2°46.888 12.4 -999 8.6 102190 40
2011-04-05 07:44:19 51°11.868 2°46.858 10.5 316 8.7 102200 41
2011-04-05 07:44:24 51°11.86 2°46.829 12.8 280 8.7 102200 41
2011-04-05 07:44:29 51°11.853 2°46.8 13.4 19 8.7 102190 41
2011-04-05 07:44:34 51°11.846 2°46.771 12.8 278 8.7 102190 41
2011-04-05 07:44:39 51°11.839 2°46.742 16.3 23 8.7 102200 39
2011-04-05 07:44:43 51°11.833 2°46.718 13.8 282 8.7 102200 39
2011-04-05 07:44:49 51°11.825 2°46.683 12.2 21 8.7 102200 40
2011-04-05 07:44:54 51°11.818 2°46.653 13.6 284 8.7 102200 40
2011-04-05 07:44:59 51°11.811 2°46.624 11 316 8.7 102200 41
2011-04-05 07:45:04 51°11.804 2°46.594 14.6 282 8.7 102200 41
2011-04-05 07:45:09 51°11.797 2°46.565 15.6 23 8.8 102190 40
2011-04-05 07:45:14 51°11.79 2°46.535 11.9 -999 8.8 102190 40
2011-04-05 07:45:19 51°11.783 2°46.506 12.7 22 8.8 102200 41
2011-04-05 07:45:23 51°11.778 2°46.482 15.9 283 8.8 102200 41
2011-04-05 07:45:29 51°11.769 2°46.446 11.8 315 8.8 102200 40
2011-04-05 07:45:34 51°11.762 2°46.417 15.6 282 8.8 102200 40
2011-04-05 07:45:39 51°11.755 2°46.387 16.2 20 8.8 102190 40
2011-04-05 07:45:44 51°11.748 2°46.358 13.3 283 8.8 102190 40
2011-04-05 07:45:49 51°11.741 2°46.329 16.2 22 8.8 102200 40
2011-04-05 07:45:54 51°11.735 2°46.299 16.3 280 8.8 102200 40
2011-04-05 07:45:59 51°11.728 2°46.269 15 25 8.8 102190 41
2011-04-05 07:46:04 51°11.722 2°46.239 13 285 8.8 102190 41
2011-04-05 07:46:09 51°11.715 2°46.21 13.2 24 8.8 102190 40
2011-04-05 07:46:15 51°11.707 2°46.175 12.3 -999 8.8 102190 40
2011-04-05 07:46:19 51°11.702 2°46.151 13 25 8.8 102180 39
2011-04-05 07:46:24 51°11.695 2°46.122 12.2 278 8.8 102180 39
2011-04-05 07:46:29 51°11.688 2°46.092 15.9 24 8.8 102190 40
2011-04-05 07:46:34 51°11.682 2°46.063 11.8 283 8.8 102190 40
2011-04-05 07:46:39 51°11.675 2°46.034 14.9 315 8.8 102180 39
2011-04-05 07:46:44 51°11.668 2°46.004 14.4 282 8.8 102180 39
2011-04-05 07:46:49 51°11.661 2°45.975 11.3 317 8.8 102180 40
2011-04-05 07:46:54 51°11.654 2°45.946 11.7 281 8.8 102180 40
2011-04-05 07:46:59 51°11.647 2°45.917 12.9 24 8.8 102190 40
2011-04-05 07:47:04 51°11.639 2°45.888 15.4 287 8.8 102190 40
2011-04-05 07:47:09 51°11.632 2°45.859 13 316 8.8 102200 39
2011-04-05 07:47:14 51°11.625 2°45.83 14 -999 8.8 102200 39
2011-04-05 07:47:19 51°11.619 2°45.8 11.8 20 8.8 102200 39
2011-04-05 07:47:23 51°11.613 2°45.777 14.6 282 8.8 102200 39
2011-04-05 07:47:29 51°11.605 2°45.741 12.7 27 8.9 102190 40
2011-04-05 07:47:34 51°11.598 2°45.712 13.2 279 8.9 102190 40
2011-04-05 07:47:39 51°11.591 2°45.683 14.3 317 8.9 102200 40
2011-04-05 07:47:44 51°11.583 2°45.654 11.7 283 8.9 102200 40
2011-04-05 07:47:49 51°11.576 2°45.625 13.4 315 8.9 102190 39
2011-04-05 07:47:54 51°11.569 2°45.596 14.3 286 8.9 102190 39
2011-04-05 07:47:59 51°11.562 2°45.567 17 315 8.9 102190 40
2011-04-05 07:48:04 51°11.554 2°45.538 11.3 284 8.9 102190 40
2011-04-05 07:48:09 51°11.547 2°45.509 17.3 34 8.9 102190 40
2011-04-05 07:48:14 51°11.54 2°45.479 12.1 286 8.9 102190 40
2011-04-05 07:48:19 51°11.534 2°45.45 11.2 24 8.9 102180 40
2011-04-05 07:48:23 51°11.528 2°45.426 13.8 278 8.9 102180 40
2011-04-05 07:48:29 51°11.52 2°45.391 16.4 315 8.9 102180 41
2011-04-05 07:48:34 51°11.514 2°45.362 13.1 283 8.9 102180 41
2011-04-05 07:48:39 51°11.507 2°45.333 14.5 316 8.9 102190 40
2011-04-05 07:48:44 51°11.5 2°45.303 17.7 284 8.9 102190 40
2011-04-05 07:48:49 51°11.493 2°45.274 13.3 25 8.9 102180 40
2011-04-05 07:48:55 51°11.485 2°45.239 16 283 8.9 102180 40
2011-04-05 07:48:59 51°11.479 2°45.215 14.9 24 8.9 102190 41
2011-04-05 07:49:04 51°11.472 2°45.186 16.8 285 8.9 102190 41
2011-04-05 07:49:09 51°11.465 2°45.157 16.4 25 8.9 102190 40
2011-04-05 07:49:14 51°11.458 2°45.128 14.6 282 8.9 102190 40
2011-04-05 07:49:19 51°11.451 2°45.099 15.7 316 8.9 102180 40
2011-04-05 07:49:23 51°11.445 2°45.075 13.1 284 8.9 102180 40
2011-04-05 07:49:29 51°11.436 2°45.041 17.8 21 8.9 102180 40
2011-04-05 07:49:34 51°11.429 2°45.012 16.4 280 8.9 102180 40
2011-04-05 07:49:39 51°11.422 2°44.982 13 33 8.9 102180 39
2011-04-05 07:49:44 51°11.415 2°44.953 12.5 285 8.9 102180 39
2011-04-05 07:49:49 51°11.409 2°44.923 17.2 23 8.9 102180 39
2011-04-05 07:49:54 51°11.402 2°44.894 16.3 284 8.9 102180 39
2011-04-05 07:49:59 51°11.396 2°44.864 17 21 8.9 102180 39
2011-04-05 07:50:04 51°11.389 2°44.835 12.1 283 8.9 102180 39
2011-04-05 07:50:09 51°11.382 2°44.805 16.9 22 8.9 102180 40
2011-04-05 07:50:14 51°11.375 2°44.776 13.5 285 8.9 102180 40
2011-04-05 07:50:19 51°11.368 2°44.747 17.2 24 8.9 102180 39
2011-04-05 07:50:24 51°11.361 2°44.717 13.5 282 8.9 102180 39
2011-04-05 07:50:30 51°11.352 2°44.682 12 23 8.9 102170 41
2011-04-05 07:50:35 51°11.345 2°44.653 12.7 280 8.9 102170 41
2011-04-05 07:50:39 51°11.339 2°44.63 15.5 22 8.9 102180 41
2011-04-05 07:50:44 51°11.332 2°44.601 17.9 283 8.9 102180 41
2011-04-05 07:50:49 51°11.325 2°44.571 14.1 36 8.9 102170 39
2011-04-05 07:50:54 51°11.319 2°44.542 11.1 285 8.9 102170 39
2011-04-05 07:50:59 51°11.312 2°44.512 17 20 8.9 102170 40
2011-04-05 07:51:03 51°11.307 2°44.489 15.3 280 8.9 102170 40
2011-04-05 07:51:09 51°11.299 2°44.454 13.8 24 8.9 102170 40
2011-04-05 07:51:14 51°11.292 2°44.424 15.4 287 8.9 102170 40
2011-04-05 07:51:19 51°11.285 2°44.395 13.3 21 8.9 102180 40
2011-04-05 07:51:24 51°11.278 2°44.366 15.6 281 8.9 102180 40
2011-04-05 07:51:29 51°11.271 2°44.337 13.1 20 8.9 102170 40
2011-04-05 07:51:34 51°11.265 2°44.308 13.9 280 8.9 102170 40
2011-04-05 07:51:39 51°11.258 2°44.279 14.1 25 8.9 102180 41
2011-04-05 07:51:44 51°11.251 2°44.25 15.9 281 8.9 102180 41
2011-04-05 07:51:49 51°11.244 2°44.221 16.7 316 8.9 102180 41
2011-04-05 07:51:54 51°11.237 2°44.191 15.3 278 8.9 102180 41
2011-04-05 07:51:59 51°11.23 2°44.162 18.4 34 8.9 102170 40
2011-04-05 07:52:03 51°11.225 2°44.139 14.7 282 8.9 102170 40
2011-04-05 07:52:09 51°11.217 2°44.103 19.4 316 8.9 102170 40
2011-04-05 07:52:14 51°11.21 2°44.074 14.4 -999 8.9 102170 40
2011-04-05 07:52:19 51°11.204 2°44.045 13 23 8.9 102180 40
2011-04-05 07:52:24 51°11.197 2°44.015 14.6 284 8.9 102180 40
2011-04-05 07:52:29 51°11.191 2°43.986 12.6 25 8.9 102170 40
2011-04-05 07:52:34 51°11.184 2°43.956 13.9 284 8.9 102170 40
2011-04-05 07:52:39 51°11.177 2°43.927 12.9 23 8.9 102170 39
2011-04-05 07:52:44 51°11.171 2°43.898 17.1 281 8.9 102170 39
2011-04-05 07:52:49 51°11.164 2°43.868 13.4 36 8.9 102170 39
2011-04-05 07:52:54 51°11.157 2°43.839 16.2 286 8.9 102170 39
2011-04-05 07:52:59 51°11.15 2°43.81 15.1 316 8.9 102170 39
2011-04-05 07:53:04 51°11.143 2°43.781 11.1 277 8.9 102170 39
2011-04-05 07:53:09 51°11.136 2°43.752 12 38 8.9 102170 39
2011-04-05 07:53:15 51°11.128 2°43.717 15.3 286 8.9 102170 39
2011-04-05 07:53:19 51°11.123 2°43.693 13.3 24 8.9 102170 39
2011-04-05 07:53:24 51°11.116 2°43.664 15.8 286 8.9 102170 39
2011-04-05 07:53:29 51°11.111 2°43.634 11.1 37 9 102180 39
2011-04-05 07:53:34 51°11.106 2°43.604 13.5 282 9 102180 39
2011-04-05 07:53:39 51°11.101 2°43.574 14.1 24 9 102170 40
2011-04-05 07:53:43 51°11.098 2°43.55 13 286 9 102170 40
2011-04-05 07:53:49 51°11.093 2°43.514 15.9 21 9 102170 40
2011-04-05 07:53:54 51°11.09 2°43.483 14.2 282 9 102170 40
2011-04-05 07:53:59 51°11.086 2°43.453 11.5 28 9 102170 40
2011-04-05 07:54:04 51°11.083 2°43.422 14 280 9 102170 40
2011-04-05 07:54:09 51°11.079 2°43.392 15.1 24 9 102170 39
2011-04-05 07:54:14 51°11.076 2°43.361 12.2 285 9 102170 39
2011-04-05 07:54:19 51°11.072 2°43.33 11.9 25 9 102170 39
2011-04-05 07:54:24 51°11.068 2°43.3 14.9 279 9 102170 39
2011-04-05 07:54:29 51°11.064 2°43.269 13.1 19 9 102160 40
2011-04-05 07:54:34 51°11.06 2°43.239 12.1 281 9 102160 40
2011-04-05 07:54:39 51°11.056 2°43.209 13.5 26 9 102160 41
2011-04-05 07:54:43 51°11.053 2°43.184 12.6 282 9 102160 41
2011-04-05 07:54:49 51°11.049 2°43.147 11.7 20 9 102170 40
2011-04-05 07:54:54 51°11.044 2°43.117 13.4 281 9 102170 40
2011-04-05 07:54:59 51°11.041 2°43.086 14.7 23 9 102170 41
2011-04-05 07:55:04 51°11.037 2°43.055 15.5 284 9 102170 41
2011-04-05 07:55:09 51°11.034 2°43.024 14.8 34 9 102170 40
2011-04-05 07:55:15 51°11.031 2°42.987 12.5 281 9 102170 40
2011-04-05 07:55:19 51°11.03 2°42.962 13.8 24 9 102170 39
2011-04-05 07:55:24 51°11.029 2°42.931 15.4 283 9 102170 39
2011-04-05 07:55:29 51°11.029 2°42.9 13.5 33 9 102170 40
2011-04-05 07:55:34 51°11.028 2°42.869 12.8 287 9 102170 40
2011-04-05 07:55:39 51°11.028 2°42.837 12.1 23 9 102180 40
2011-04-05 07:55:43 51°11.028 2°42.814 12.2 277 9 102180 40
2011-04-05 07:55:49 51°11.028 2°42.78 11 25 9 102170 40
2011-04-05 07:55:54 51°11.028 2°42.754 11 279 9 102170 40
2011-04-05 07:55:59 51°11.028 2°42.729 11.9 25 9 102170 39
2011-04-05 07:56:04 51°11.028 2°42.706 10.3 286 9 102170 39
2011-04-05 07:56:09 51°11.027 2°42.684 10.4 23 9 102180 40
2011-04-05 07:56:14 51°11.026 2°42.664 11 -999 9 102180 40
2011-04-05 07:56:19 51°11.025 2°42.644 10.4 235 9 102190 39
2011-04-05 07:56:24 51°11.024 2°42.626 10.7 286 9 102190 39
2011-04-05 07:56:29 51°11.022 2°42.609 13.2 21 9 102190 41
2011-04-05 07:56:34 51°11.02 2°42.593 11.8 286 9 102190 41
2011-04-05 07:56:39 51°11.019 2°42.578 10.4 21 9 102180 40
2011-04-05 07:56:44 51°11.017 2°42.564 11 281 9 102180 40
2011-04-05 07:56:49 51°11.015 2°42.55 9 24 9 102190 39
2011-04-05 07:56:54 51°11.014 2°42.537 10.5 283 9 102190 39
2011-04-05 07:56:59 51°11.012 2°42.523 11.8 22 9 102190 39
2011-04-05 07:57:04 51°11.01 2°42.51 9.2 281 9 102190 39
2011-04-05 07:57:09 51°11.009 2°42.497 9.5 25 9 102190 39
2011-04-05 07:57:14 51°11.008 2°42.484 9.5 283 9 102190 39
2011-04-05 07:57:19 51°11.008 2°42.471 9.6 247 9 102190 40
2011-04-05 07:57:23 51°11.008 2°42.461 9.7 279 9 102190 40
2011-04-05 07:57:29 51°11.008 2°42.446 8.1 252 9 102180 41
2011-04-05 07:57:34 51°11.01 2°42.434 9.4 283 9 102180 41
2011-04-05 07:57:39 51°11.011 2°42.422 10 256 9 102190 41
2011-04-05 07:57:44 51°11.013 2°42.411 11.5 282 9 102190 41
2011-04-05 07:57:49 51°11.015 2°42.399 11.5 258 9 102190 41
2011-04-05 07:57:54 51°11.017 2°42.388 10.1 282 9 102190 41
2011-04-05 07:57:59 51°11.02 2°42.377 10.1 259 9 102200 40
2011-04-05 07:58:04 51°11.023 2°42.366 9.9 280 9 102200 40
2011-04-05 07:58:09 51°11.026 2°42.356 9.7 260 9.1 102200 40
2011-04-05 07:58:14 51°11.029 2°42.345 8.6 282 9.1 102200 40
2011-04-05 07:58:19 51°11.032 2°42.335 11 259 9 102200 41
2011-04-05 07:58:23 51°11.034 2°42.326 8.3 282 9 102200 41
2011-04-05 07:58:29 51°11.037 2°42.313 9.4 255 9 102200 39
2011-04-05 07:58:34 51°11.04 2°42.302 9.2 285 9 102200 39
2011-04-05 07:58:39 51°11.042 2°42.291 9.9 258 9 102200 41
2011-04-05 07:58:44 51°11.045 2°42.28 9.5 278 9 102200 41
2011-04-05 07:58:49 51°11.047 2°42.269 8.4 251 9 102210 41
2011-04-05 07:58:54 51°11.049 2°42.258 9.4 284 9 102210 41
2011-04-05 07:58:59 51°11.051 2°42.246 8.7 251 9 102200 41
2011-04-05 07:59:04 51°11.052 2°42.235 8 278 9 102200 41
2011-04-05 07:59:09 51°11.053 2°42.224 8.5 251 9.1 102200 39
2011-04-05 07:59:14 51°11.055 2°42.212 8.8 284 9.1 102200 39
2011-04-05 07:59:19 51°11.056 2°42.201 9.6 20 9.1 102200 41
2011-04-05 07:59:24 51°11.058 2°42.189 9.8 286 9.1 102200 41
2011-04-05 07:59:29 51°11.059 2°42.178 8.8 246 9.1 102210 40
2011-04-05 07:59:35 51°11.06 2°42.164 8.8 282 9.1 102210 40
2011-04-05 07:59:39 51°11.061 2°42.155 9.5 22 9.1 102200 41
2011-04-05 07:59:44 51°11.062 2°42.144 9.6 286 9.1 102200 41
2011-04-05 07:59:49 51°11.063 2°42.132 9.4 245 9.1 102200 39
2011-04-05 07:59:54 51°11.064 2°42.121 8.5 281 9.1 102200 39
2011-04-05 07:59:59 51°11.065 2°42.11 10.3 252 9.1 102200 40
2011-04-05 08:00:03 51°11.066 2°42.101 9.5 279 9.1 102200 40
2011-04-05 08:00:09 51°11.068 2°42.088 9.9 255 9.1 102200 41
2011-04-05 08:00:14 51°11.07 2°42.078 8.8 286 9.1 102200 41
2011-04-05 08:00:19 51°11.071 2°42.069 9.8 258 9.1 102200 39
2011-04-05 08:00:24 51°11.073 2°42.06 10 285 9.1 102200 39
2011-04-05 08:00:29 51°11.075 2°42.052 8.6 254 9.1 102200 41
2011-04-05 08:00:34 51°11.077 2°42.044 9.5 279 9.1 102200 41
2011-04-05 08:00:39 51°11.079 2°42.036 7.8 260 9.1 102210 38
2011-04-05 08:00:44 51°11.08 2°42.029 8.4 285 9.1 102210 38
2011-04-05 08:00:49 51°11.082 2°42.022 7.7 261 9.1 102200 40
2011-04-05 08:00:54 51°11.084 2°42.015 7.2 284 9.1 102200 40
2011-04-05 08:00:59 51°11.085 2°42.01 9.8 258 9.1 102210 42
2011-04-05 08:01:03 51°11.087 2°42.005 8.5 283 9.1 102210 42
2011-04-05 08:01:09 51°11.088 2°41.999 7.6 260 9.1 102210 40
2011-04-05 08:01:14 51°11.089 2°41.994 4.8 279 9.1 102210 40
2011-04-05 08:01:19 51°11.09 2°41.99 8 266 9.1 102210 40
2011-04-05 08:01:24 51°11.091 2°41.986 8 279 9.1 102210 40
2011-04-05 08:01:29 51°11.092 2°41.983 7.6 263 9.2 102210 40
2011-04-05 08:01:34 51°11.093 2°41.979 7 281 9.2 102210 40
2011-04-05 08:01:39 51°11.094 2°41.976 9.3 261 9.1 102210 40
2011-04-05 08:01:44 51°11.095 2°41.973 9.5 282 9.1 102210 40
2011-04-05 08:01:49 51°11.096 2°41.97 9.9 263 9.1 102210 39
2011-04-05 08:01:54 51°11.096 2°41.966 10.5 280 9.1 102210 39
2011-04-05 08:01:59 51°11.097 2°41.963 10.2 259 9.1 102210 41
2011-04-05 08:02:03 51°11.097 2°41.96 9.2 283 9.1 102210 41
2011-04-05 08:02:09 51°11.098 2°41.957 12.1 260 9.1 102200 41
2011-04-05 08:02:14 51°11.099 2°41.954 10.1 -999 9.1 102200 41
2011-04-05 08:02:19 51°11.1 2°41.95 10.2 259 9.1 102210 41
2011-04-05 08:02:24 51°11.1 2°41.947 10.4 284 9.1 102210 41
2011-04-05 08:02:29 51°11.101 2°41.944 10.8 256 9.1 102210 40
2011-04-05 08:02:34 51°11.101 2°41.941 9.1 286 9.1 102210 40
2011-04-05 08:02:39 51°11.102 2°41.938 8.7 258 9.1 102210 40
2011-04-05 08:02:44 51°11.102 2°41.935 10 285 9.1 102210 40
2011-04-05 08:02:49 51°11.103 2°41.932 9.6 255 9.1 102210 41
2011-04-05 08:02:54 51°11.103 2°41.929 9.6 283 9.1 102210 41
2011-04-05 08:02:59 51°11.103 2°41.927 11.8 253 9.1 102210 41
2011-04-05 08:03:04 51°11.104 2°41.924 9.7 278 9.1 102210 41
2011-04-05 08:03:09 51°11.104 2°41.921 10.2 249 9.1 102200 42
2011-04-05 08:03:14 51°11.104 2°41.918 9.1 279 9.1 102200 42
2011-04-05 08:03:19 51°11.105 2°41.915 9 252 9.1 102200 40
2011-04-05 08:03:24 51°11.105 2°41.912 9.3 282 9.1 102200 40
2011-04-05 08:03:29 51°11.106 2°41.909 9.8 251 9.1 102200 41
2011-04-05 08:03:34 51°11.106 2°41.907 9.4 285 9.1 102200 41
2011-04-05 08:03:39 51°11.107 2°41.904 9.2 253 9.1 102200 40
2011-04-05 08:03:43 51°11.107 2°41.901 8.7 283 9.1 102200 40
2011-04-05 08:03:49 51°11.108 2°41.898 9.1 252 9.1 102200 41
2011-04-05 08:03:54 51°11.108 2°41.896 8.7 284 9.1 102200 41
2011-04-05 08:03:59 51°11.108 2°41.893 10.6 254 9.1 102200 41
2011-04-05 08:04:04 51°11.108 2°41.891 8.5 279 9.1 102200 41
2011-04-05 08:04:09 51°11.109 2°41.888 8.7 253 9.1 102200 41
2011-04-05 08:04:15 51°11.109 2°41.885 8 283 9.1 102200 41
2011-04-05 08:04:19 51°11.109 2°41.883 8.1 252 9.2 102200 41
2011-04-05 08:04:24 51°11.11 2°41.88 7.9 279 9.2 102200 41
2011-04-05 08:04:29 51°11.11 2°41.878 7.8 250 9.1 102210 41
2011-04-05 08:04:34 51°11.11 2°41.876 9.7 286 9.1 102210 41
2011-04-05 08:04:39 51°11.11 2°41.874 8.4 21 9.2 102210 39
2011-04-05 08:04:43 51°11.111 2°41.872 9.4 286 9.2 102210 39
2011-04-05 08:04:49 51°11.111 2°41.869 9.5 250 9.2 102200 42
2011-04-05 08:04:54 51°11.112 2°41.867 10 280 9.2 102200 42
2011-04-05 08:04:59 51°11.112 2°41.864 8.2 250 9.2 102210 42
2011-04-05 08:05:04 51°11.112 2°41.862 8.8 280 9.2 102210 42
2011-04-05 08:05:09 51°11.113 2°41.86 8 252 9.2 102210 41
2011-04-05 08:05:14 51°11.113 2°41.857 8.3 281 9.2 102210 41
2011-04-05 08:05:19 51°11.113 2°41.855 9.3 254 9.2 102190 41
2011-04-05 08:05:24 51°11.114 2°41.853 10.2 285 9.2 102190 41
2011-04-05 08:05:29 51°11.114 2°41.851 11.1 254 9.2 102200 42
2011-04-05 08:05:34 51°11.114 2°41.849 10.2 282 9.2 102200 42
2011-04-05 08:05:39 51°11.115 2°41.847 10.3 255 9.2 102210 42
2011-04-05 08:05:44 51°11.115 2°41.846 9.7 279 9.2 102210 42
2011-04-05 08:05:49 51°11.115 2°41.844 10.8 256 9.2 102210 41
2011-04-05 08:05:54 51°11.116 2°41.842 10 283 9.2 102210 41
2011-04-05 08:05:59 51°11.116 2°41.84 9.6 254 9.2 102210 40
2011-04-05 08:06:04 51°11.117 2°41.838 11.7 286 9.2 102210 40
2011-04-05 08:06:09 51°11.117 2°41.836 13 254 9.2 102200 40
2011-04-05 08:06:14 51°11.118 2°41.834 11.3 -999 9.2 102200 40
2011-04-05 08:06:19 51°11.118 2°41.833 10.8 259 9.2 102210 40
2011-04-05 08:06:23 51°11.118 2°41.831 12.1 278 9.2 102210 40
2011-04-05 08:06:29 51°11.119 2°41.829 12 256 9.2 102210 40
2011-04-05 08:06:34 51°11.119 2°41.828 11.1 280 9.2 102210 40
2011-04-05 08:06:39 51°11.12 2°41.826 11.1 254 9.2 102200 40
2011-04-05 08:06:44 51°11.12 2°41.825 13.4 282 9.2 102200 40
2011-04-05 08:06:49 51°11.121 2°41.823 12.3 257 9.2 102210 41
2011-04-05 08:06:54 51°11.121 2°41.822 11.6 286 9.2 102210 41
2011-04-05 08:06:59 51°11.122 2°41.82 12.4 255 9.2 102210 41
2011-04-05 08:07:04 51°11.122 2°41.819 11.8 279 9.2 102210 41
2011-04-05 08:07:09 51°11.123 2°41.818 9.2 260 9.2 102200 40
2011-04-05 08:07:14 51°11.123 2°41.816 10 284 9.2 102200 40
2011-04-05 08:07:19 51°11.124 2°41.815 11.1 258 9.2 102210 40
2011-04-05 08:07:23 51°11.124 2°41.814 8.4 281 9.2 102210 40
2011-04-05 08:07:29 51°11.125 2°41.812 8.7 261 9.2 102200 41
2011-04-05 08:07:34 51°11.125 2°41.811 7.5 284 9.2 102200 41
2011-04-05 08:07:39 51°11.126 2°41.809 7.9 263 9.2 102210 40
2011-04-05 08:07:44 51°11.126 2°41.808 12.3 283 9.2 102210 40
2011-04-05 08:07:49 51°11.126 2°41.807 6.5 264 9.2 102210 41
2011-04-05 08:07:54 51°11.127 2°41.805 6.6 283 9.2 102210 41
2011-04-05 08:07:59 51°11.127 2°41.804 7.8 262 9.3 102220 41
2011-04-05 08:08:04 51°11.127 2°41.803 8.6 279 9.3 102220 41
2011-04-05 08:08:09 51°11.128 2°41.802 7.4 264 9.3 102220 39
2011-04-05 08:08:14 51°11.128 2°41.8 6.6 280 9.3 102220 39
2011-04-05 08:08:19 51°11.129 2°41.799 7.7 263 9.3 102220 40
2011-04-05 08:08:24 51°11.129 2°41.798 7.2 285 9.3 102220 40
2011-04-05 08:08:29 51°11.13 2°41.797 6.1 269 9.3 102220 42
2011-04-05 08:08:35 51°11.13 2°41.796 7.4 281 9.3 102220 42
2011-04-05 08:08:39 51°11.13 2°41.795 6.8 264 9.3 102220 40
2011-04-05 08:08:44 51°11.131 2°41.794 7.2 284 9.3 102220 40
2011-04-05 08:08:49 51°11.131 2°41.793 6.9 265 9.3 102210 39
2011-04-05 08:08:54 51°11.131 2°41.791 6.1 281 9.3 102210 39
2011-04-05 08:08:59 51°11.132 2°41.79 8.1 263 9.3 102220 42
2011-04-05 08:09:03 51°11.132 2°41.789 6.2 285 9.3 102220 42
2011-04-05 08:09:09 51°11.133 2°41.788 4.6 263 9.3 102220 40
2011-04-05 08:09:14 51°11.133 2°41.786 6.4 282 9.3 102220 40
2011-04-05 08:09:19 51°11.133 2°41.785 6.4 264 9.3 102220 40
2011-04-05 08:09:24 51°11.133 2°41.784 5.5 285 9.3 102220 40
2011-04-05 08:09:29 51°11.133 2°41.783 5.5 266 9.3 102220 41
2011-04-05 08:09:34 51°11.134 2°41.782 6.2 285 9.3 102220 41
2011-04-05 08:09:39 51°11.134 2°41.781 6.4 264 9.3 102220 40
2011-04-05 08:09:44 51°11.135 2°41.779 7.5 281 9.3 102220 40
2011-04-05 08:09:49 51°11.135 2°41.778 8.4 267 9.3 102220 41
2011-04-05 08:09:54 51°11.135 2°41.777 6.4 282 9.3 102220 41
2011-04-05 08:09:59 51°11.136 2°41.776 8 267 9.3 102220 39
2011-04-05 08:10:03 51°11.136 2°41.776 9.6 285 9.3 102220 39
2011-04-05 08:10:09 51°11.136 2°41.775 7.7 262 9.3 102210 42
2011-04-05 08:10:14 51°11.136 2°41.774 6.4 278 9.3 102210 42
2011-04-05 08:10:19 51°11.137 2°41.772 6.4 263 9.3 102220 40
2011-04-05 08:10:24 51°11.137 2°41.771 6.1 280 9.3 102220 40
2011-04-05 08:10:29 51°11.137 2°41.77 5.7 268 9.3 102210 42
2011-04-05 08:10:34 51°11.138 2°41.769 7.9 286 9.3 102210 42
2011-04-05 08:10:39 51°11.138 2°41.768 7.2 267 9.3 102210 42
2011-04-05 08:10:44 51°11.138 2°41.766 9.8 285 9.3 102210 42
2011-04-05 08:10:49 51°11.139 2°41.765 7.7 268 9.3 102220 40
2011-04-05 08:10:54 51°11.139 2°41.764 6.2 287 9.3 102220 40
2011-04-05 08:10:59 51°11.139 2°41.763 7.1 264 9.3 102220 42
2011-04-05 08:11:03 51°11.14 2°41.762 6.2 279 9.3 102220 42
2011-04-05 08:11:09 51°11.14 2°41.76 7.4 265 9.3 102220 40
2011-04-05 08:11:14 51°11.141 2°41.759 6.9 280 9.3 102220 40
2011-04-05 08:11:19 51°11.141 2°41.758 8 265 9.3 102220 38
2011-04-05 08:11:24 51°11.141 2°41.756 7.6 285 9.3 102220 38
2011-04-05 08:11:29 51°11.141 2°41.755 6.2 265 9.3 102220 40
2011-04-05 08:11:34 51°11.141 2°41.754 8.8 280 9.3 102220 40
2011-04-05 08:11:39 51°11.141 2°41.753 7.1 265 9.3 102220 41
2011-04-05 08:11:44 51°11.141 2°41.752 5.6 281 9.3 102220 41
2011-04-05 08:11:49 51°11.142 2°41.751 6.1 263 9.3 102220 41
2011-04-05 08:11:54 51°11.142 2°41.75 5.4 283 9.3 102220 41
2011-04-05 08:11:59 51°11.142 2°41.748 6.4 261 9.3 102220 42
2011-04-05 08:12:04 51°11.143 2°41.747 7.2 281 9.3 102220 42
2011-04-05 08:12:09 51°11.143 2°41.746 6.6 264 9.3 102220 40
2011-04-05 08:12:14 51°11.143 2°41.745 7 -999 9.3 102220 40
2011-04-05 08:12:19 51°11.143 2°41.744 6.5 265 9.3 102220 42
2011-04-05 08:12:24 51°11.144 2°41.742 6.8 283 9.3 102220 42
2011-04-05 08:12:29 51°11.144 2°41.741 7.7 268 9.3 102230 42
2011-04-05 08:12:34 51°11.144 2°41.74 7 287 9.3 102230 42
2011-04-05 08:12:39 51°11.145 2°41.739 7.4 262 9.3 102220 40
2011-04-05 08:12:43 51°11.145 2°41.739 8.2 282 9.3 102220 40
2011-04-05 08:12:49 51°11.145 2°41.737 7.1 265 9.3 102220 39
2011-04-05 08:12:54 51°11.146 2°41.736 7.7 281 9.3 102220 39
2011-04-05 08:12:59 51°11.146 2°41.735 7.4 264 9.3 102220 41
2011-04-05 08:13:04 51°11.146 2°41.734 6 280 9.3 102220 41
2011-04-05 08:13:09 51°11.147 2°41.733 7.2 263 9.3 102220 41
2011-04-05 08:13:15 51°11.147 2°41.732 6.7 283 9.3 102220 41
2011-04-05 08:13:19 51°11.147 2°41.731 6.7 262 9.3 102220 41
2011-04-05 08:13:24 51°11.148 2°41.73 6.1 279 9.3 102220 41
2011-04-05 08:13:29 51°11.148 2°41.729 7.5 265 9.3 102220 40
2011-04-05 08:13:34 51°11.148 2°41.728 7.5 284 9.3 102220 40
2011-04-05 08:13:39 51°11.149 2°41.727 7.5 265 9.3 102220 39
2011-04-05 08:13:43 51°11.149 2°41.726 7.7 283 9.3 102220 39
2011-04-05 08:13:49 51°11.149 2°41.724 7.3 263 9.3 102220 39
2011-04-05 08:13:54 51°11.15 2°41.723 8.8 282 9.3 102220 39
2011-04-05 08:13:59 51°11.15 2°41.722 8.3 261 9.3 102220 39
2011-04-05 08:14:04 51°11.15 2°41.721 6.4 286 9.3 102220 39
2011-04-05 08:14:09 51°11.151 2°41.72 7.3 264 9.3 102220 41
2011-04-05 08:14:14 51°11.151 2°41.719 8.6 -999 9.3 102220 41
2011-04-05 08:14:19 51°11.151 2°41.718 6.9 263 9.3 102210 41
2011-04-05 08:14:24 51°11.152 2°41.717 5.8 281 9.3 102210 41
2011-04-05 08:14:29 51°11.152 2°41.716 6.7 260 9.3 102220 41
2011-04-05 08:14:34 51°11.152 2°41.715 7.9 284 9.3 102220 41
2011-04-05 08:14:39 51°11.153 2°41.714 6.9 263 9.3 102220 40
2011-04-05 08:14:44 51°11.153 2°41.713 7.3 286 9.3 102220 40
2011-04-05 08:14:49 51°11.153 2°41.712 8.4 263 9.3 102230 40
2011-04-05 08:14:54 51°11.154 2°41.711 7.5 283 9.3 102230 40
2011-04-05 08:14:59 51°11.154 2°41.71 7.5 263 9.4 102220 42
2011-04-05 08:15:04 51°11.154 2°41.709 6.9 283 9.4 102220 42
2011-04-05 08:15:09 51°11.154 2°41.708 7.6 265 9.4 102220 41
2011-04-05 08:15:14 51°11.155 2°41.707 7 281 9.4 102220 41
2011-04-05 08:15:19 51°11.155 2°41.706 6.9 265 9.4 102220 40
2011-04-05 08:15:23 51°11.155 2°41.706 7.3 281 9.4 102220 40
2011-04-05 08:15:29 51°11.156 2°41.705 6.9 266 9.4 102220 42
2011-04-05 08:15:34 51°11.156 2°41.704 8.2 281 9.4 102220 42
2011-04-05 08:15:39 51°11.157 2°41.703 8 264 9.3 102220 39
2011-04-05 08:15:44 51°11.157 2°41.702 7.3 283 9.3 102220 39
2011-04-05 08:15:49 51°11.157 2°41.701 7.5 265 9.3 102220 40
2011-04-05 08:15:55 51°11.157 2°41.7 7.5 281 9.3 102220 40
2011-04-05 08:15:59 51°11.157 2°41.7 9.9 268 9.3 102220 41
2011-04-05 08:16:04 51°11.158 2°41.699 10.9 278 9.3 102220 41
2011-04-05 08:16:09 51°11.158 2°41.698 9.3 265 9.3 102220 39
2011-04-05 08:16:14 51°11.158 2°41.697 7 280 9.3 102220 39
2011-04-05 08:16:19 51°11.158 2°41.696 6.7 266 9.4 102220 39
2011-04-05 08:16:23 51°11.159 2°41.695 7.5 279 9.4 102220 39
2011-04-05 08:16:29 51°11.159 2°41.694 7 265 9.4 102220 41
2011-04-05 08:16:34 51°11.159 2°41.693 7.1 279 9.4 102220 41
2011-04-05 08:16:39 51°11.159 2°41.692 7.4 266 9.4 102220 38
2011-04-05 08:16:44 51°11.16 2°41.692 9.3 281 9.4 102220 38
2011-04-05 08:16:49 51°11.16 2°41.691 6.1 263 9.4 102220 39
2011-04-05 08:16:54 51°11.16 2°41.69 8.3 280 9.4 102220 39
2011-04-05 08:16:59 51°11.16 2°41.689 8.7 263 9.3 102220 40
2011-04-05 08:17:04 51°11.16 2°41.688 6.4 284 9.3 102220 40
2011-04-05 08:17:09 51°11.161 2°41.687 7.4 263 9.3 102220 40
2011-04-05 08:17:14 51°11.161 2°41.686 8 280 9.3 102220 40
2011-04-05 08:17:19 51°11.161 2°41.685 8.6 259 9.3 102220 41
2011-04-05 08:17:24 51°11.161 2°41.685 6.8 278 9.3 102220 41
2011-04-05 08:17:29 51°11.162 2°41.684 8.1 263 9.3 102220 42
2011-04-05 08:17:35 51°11.162 2°41.683 8.2 287 9.3 102220 42
2011-04-05 08:17:39 51°11.162 2°41.682 7.8 262 9.4 102230 40
2011-04-05 08:17:44 51°11.162 2°41.681 7.7 285 9.4 102230 40
2011-04-05 08:17:49 51°11.163 2°41.681 8.4 262 9.4 102230 41
2011-04-05 08:17:54 51°11.163 2°41.68 8.3 280 9.4 102230 41
2011-04-05 08:17:59 51°11.163 2°41.679 8.1 261 9.4 102230 39
2011-04-05 08:18:03 51°11.163 2°41.678 6.6 286 9.4 102230 39
2011-04-05 08:18:09 51°11.163 2°41.678 6.3 264 9.4 102230 39
2011-04-05 08:18:14 51°11.164 2°41.677 7.2 -999 9.4 102230 39
2011-04-05 08:18:19 51°11.164 2°41.676 7.3 263 9.4 102230 41
2011-04-05 08:18:24 51°11.164 2°41.675 6.1 280 9.4 102230 41
2011-04-05 08:18:29 51°11.164 2°41.674 9.1 260 9.4 102230 40
2011-04-05 08:18:34 51°11.164 2°41.674 7.2 287 9.4 102230 40
2011-04-05 08:18:39 51°11.164 2°41.673 7.6 264 9.4 102230 40
2011-04-05 08:18:44 51°11.165 2°41.672 6.5 279 9.4 102230 40
2011-04-05 08:18:49 51°11.165 2°41.672 7.7 268 9.4 102230 40
2011-04-05 08:18:54 51°11.165 2°41.671 7.2 285 9.4 102230 40
2011-04-05 08:18:59 51°11.165 2°41.67 8.3 265 9.4 102240 40
2011-04-05 08:19:03 51°11.165 2°41.669 6.9 283 9.4 102240 40
2011-04-05 08:19:09 51°11.165 2°41.668 4.4 265 9.4 102230 39
2011-04-05 08:19:14 51°11.166 2°41.667 6.3 282 9.4 102230 39
2011-04-05 08:19:19 51°11.166 2°41.667 6.6 264 9.4 102230 38
2011-04-05 08:19:24 51°11.166 2°41.666 7.2 286 9.4 102230 38
2011-04-05 08:19:29 51°11.166 2°41.665 7.6 265 9.4 102230 42
2011-04-05 08:19:34 51°11.166 2°41.664 6 285 9.4 102230 42
2011-04-05 08:19:39 51°11.167 2°41.664 7.4 265 9.4 102230 39
2011-04-05 08:19:44 51°11.167 2°41.663 5.8 286 9.4 102230 39
2011-04-05 08:19:49 51°11.167 2°41.662 6.8 264 9.4 102230 41
2011-04-05 08:19:54 51°11.167 2°41.661 8.8 284 9.4 102230 41
2011-04-05 08:19:59 51°11.168 2°41.661 7.6 267 9.4 102230 39
2011-04-05 08:20:04 51°11.168 2°41.66 5.7 280 9.4 102230 39
2011-04-05 08:20:09 51°11.168 2°41.659 7.6 267 9.4 102240 40
2011-04-05 08:20:15 51°11.168 2°41.658 7.6 -999 9.4 102240 40
2011-04-05 08:20:19 51°11.168 2°41.658 6.4 267 9.4 102240 39
2011-04-05 08:20:24 51°11.169 2°41.657 6.5 280 9.4 102240 39
2011-04-05 08:20:29 51°11.169 2°41.656 6.9 265 9.4 102230 42
2011-04-05 08:20:34 51°11.169 2°41.656 6.9 280 9.4 102230 42
2011-04-05 08:20:39 51°11.169 2°41.655 6.3 264 9.4 102240 40
2011-04-05 08:20:43 51°11.169 2°41.654 7.5 282 9.4 102240 40
2011-04-05 08:20:49 51°11.17 2°41.653 5.3 263 9.4 102240 42
2011-04-05 08:20:54 51°11.17 2°41.653 7 284 9.4 102240 42
2011-04-05 08:20:59 51°11.17 2°41.652 6.2 265 9.4 102240 39
2011-04-05 08:21:04 51°11.17 2°41.652 5.4 285 9.4 102240 39
2011-04-05 08:21:09 51°11.17 2°41.651 6 264 9.4 102240 42
2011-04-05 08:21:14 51°11.17 2°41.65 7.3 279 9.4 102240 42
2011-04-05 08:21:19 51°11.171 2°41.649 7.2 263 9.4 102240 41
2011-04-05 08:21:24 51°11.171 2°41.648 6.8 280 9.4 102240 41
2011-04-05 08:21:29 51°11.171 2°41.648 8.3 267 9.4 102240 42
2011-04-05 08:21:34 51°11.171 2°41.647 7.7 280 9.4 102240 42
2011-04-05 08:21:39 51°11.171 2°41.646 5.9 267 9.4 102240 42
2011-04-05 08:21:44 51°11.172 2°41.645 7.6 284 9.4 102240 42
2011-04-05 08:21:49 51°11.172 2°41.644 7.2 264 9.4 102240 40
2011-04-05 08:21:54 51°11.172 2°41.643 7.6 285 9.4 102240 40
2011-04-05 08:21:59 51°11.172 2°41.642 6.1 265 9.4 102240 39
2011-04-05 08:22:04 51°11.172 2°41.642 6 283 9.4 102240 39
2011-04-05 08:22:09 51°11.172 2°41.641 5.2 264 9.4 102240 42
2011-04-05 08:22:14 51°11.173 2°41.64 6.5 -999 9.4 102240 42
2011-04-05 08:22:19 51°11.173 2°41.639 5.9 264 9.4 102240 42
2011-04-05 08:22:23 51°11.173 2°41.638 4.8 279 9.4 102240 42
2011-04-05 08:22:29 51°11.173 2°41.637 7.3 267 9.4 102240 39
2011-04-05 08:22:34 51°11.174 2°41.636 7.2 280 9.4 102240 39
2011-04-05 08:22:39 51°11.174 2°41.635 8.1 266 9.4 102240 42
2011-04-05 08:22:44 51°11.174 2°41.634 5.7 286 9.4 102240 42
2011-04-05 08:22:49 51°11.174 2°41.633 6.3 264 9.4 102240 42
2011-04-05 08:22:54 51°11.175 2°41.632 6 286 9.4 102240 42
2011-04-05 08:22:59 51°11.175 2°41.631 7 263 9.4 102240 42
2011-04-05 08:23:04 51°11.175 2°41.63 6.2 282 9.4 102240 42
2011-04-05 08:23:09 51°11.175 2°41.629 5.2 263 9.4 102250 39
2011-04-05 08:23:14 51°11.175 2°41.628 6.3 280 9.4 102250 39
2011-04-05 08:23:19 51°11.175 2°41.627 8.6 263 9.4 102240 40
2011-04-05 08:23:23 51°11.176 2°41.626 6.6 286 9.4 102240 40
2011-04-05 08:23:29 51°11.176 2°41.625 6.5 263 9.5 102240 39
2011-04-05 08:23:34 51°11.176 2°41.624 5.5 285 9.5 102240 39
2011-04-05 08:23:39 51°11.176 2°41.623 5.7 265 9.5 102250 41
2011-04-05 08:23:44 51°11.177 2°41.622 6.9 280 9.5 102250 41
2011-04-05 08:23:49 51°11.177 2°41.621 8.4 262 9.4 102240 42
2011-04-05 08:23:54 51°11.177 2°41.621 6.3 282 9.4 102240 42
2011-04-05 08:23:59 51°11.177 2°41.62 7.4 262 9.5 102240 42
2011-04-05 08:24:04 51°11.177 2°41.619 7.3 285 9.5 102240 42
2011-04-05 08:24:09 51°11.178 2°41.618 6.4 262 9.5 102240 42
2011-04-05 08:24:14 51°11.178 2°41.617 6.9 286 9.5 102240 42
2011-04-05 08:24:19 51°11.178 2°41.616 7.1 263 9.5 102240 40
2011-04-05 08:24:23 51°11.178 2°41.615 8.1 278 9.5 102240 40
2011-04-05 08:24:29 51°11.178 2°41.614 6.2 261 9.5 102240 42
2011-04-05 08:24:34 51°11.178 2°41.613 5.9 280 9.5 102240 42
2011-04-05 08:24:39 51°11.179 2°41.613 6 267 9.5 102240 40
2011-04-05 08:24:44 51°11.179 2°41.612 5.3 279 9.5 102240 40
2011-04-05 08:24:49 51°11.179 2°41.611 5.2 264 9.5 102230 40
2011-04-05 08:24:54 51°11.179 2°41.61 6.7 282 9.5 102230 40
2011-04-05 08:24:59 51°11.179 2°41.609 6 262 9.5 102240 40
2011-04-05 08:25:04 51°11.18 2°41.609 4.9 279 9.5 102240 40
2011-04-05 08:25:09 51°11.18 2°41.608 5.5 262 9.5 102240 41
2011-04-05 08:25:14 51°11.18 2°41.607 6.1 -999 9.5 102240 41
2011-04-05 08:25:19 51°11.18 2°41.606 6.2 264 9.5 102240 42
2011-04-05 08:25:23 51°11.18 2°41.605 7 280 9.5 102240 42
2011-04-05 08:25:29 51°11.18 2°41.604 5 265 9.5 102240 40
2011-04-05 08:25:34 51°11.18 2°41.604 6.2 284 9.5 102240 40
2011-04-05 08:25:39 51°11.181 2°41.603 7.3 261 9.5 102240 40
2011-04-05 08:25:44 51°11.181 2°41.602 6.4 281 9.5 102240 40
2011-04-05 08:25:49 51°11.181 2°41.601 7.3 25 9.5 102240 42
2011-04-05 08:25:54 51°11.181 2°41.6 5.9 279 9.5 102240 42
2011-04-05 08:25:59 51°11.181 2°41.599 5.1 265 9.5 102230 40
2011-04-05 08:26:04 51°11.181 2°41.599 5.9 284 9.5 102230 40
2011-04-05 08:26:09 51°11.181 2°41.598 8 261 9.5 102230 40
2011-04-05 08:26:14 51°11.181 2°41.597 7.8 284 9.5 102230 40
2011-04-05 08:26:19 51°11.181 2°41.597 7.1 265 9.5 102240 41
2011-04-05 08:26:24 51°11.182 2°41.596 6.5 285 9.5 102240 41
2011-04-05 08:26:29 51°11.182 2°41.595 7.1 264 9.5 102240 42
2011-04-05 08:26:35 51°11.182 2°41.594 7.7 284 9.5 102240 42
2011-04-05 08:26:39 51°11.182 2°41.594 6.4 266 9.5 102230 41
2011-04-05 08:26:44 51°11.182 2°41.593 6.4 280 9.5 102230 41
2011-04-05 08:26:49 51°11.182 2°41.592 6.2 264 9.5 102240 40
2011-04-05 08:26:54 51°11.182 2°41.591 6.5 283 9.5 102240 40
2011-04-05 08:26:59 51°11.182 2°41.59 6.6 262 9.5 102240 40
2011-04-05 08:27:03 51°11.182 2°41.589 8.1 282 9.5 102240 40
2011-04-05 08:27:09 51°11.182 2°41.589 10.1 260 9.5 102240 41
2011-04-05 08:27:14 51°11.182 2°41.588 7.7 280 9.5 102240 41
2011-04-05 08:27:19 51°11.183 2°41.587 6.6 263 9.5 102230 38
2011-04-05 08:27:24 51°11.183 2°41.587 7.6 285 9.5 102230 38
2011-04-05 08:27:29 51°11.183 2°41.586 6.3 266 9.5 102240 41
2011-04-05 08:27:34 51°11.183 2°41.585 6 284 9.5 102240 41
2011-04-05 08:27:39 51°11.183 2°41.585 5.6 266 9.5 102230 40
2011-04-05 08:27:44 51°11.183 2°41.584 8.4 282 9.5 102230 40
2011-04-05 08:27:49 51°11.184 2°41.583 5.5 265 9.5 102230 41
2011-04-05 08:27:54 51°11.184 2°41.582 5.9 284 9.5 102230 41
2011-04-05 08:27:59 51°11.184 2°41.581 5.4 266 9.5 102230 42
2011-04-05 08:28:03 51°11.184 2°41.581 6.4 281 9.5 102230 42
2011-04-05 08:28:09 51°11.184 2°41.58 6.4 266 9.5 102240 42
2011-04-05 08:28:14 51°11.184 2°41.58 7.8 284 9.5 102240 42
2011-04-05 08:28:19 51°11.184 2°41.579 7.4 267 9.5 102240 43
2011-04-05 08:28:24 51°11.184 2°41.578 5.9 282 9.5 102240 43
2011-04-05 08:28:29 51°11.185 2°41.578 5.5 262 9.6 102230 42
2011-04-05 08:28:34 51°11.185 2°41.577 5.2 286 9.6 102230 42
2011-04-05 08:28:39 51°11.185 2°41.576 5.7 265 9.5 102230 40
2011-04-05 08:28:44 51°11.185 2°41.575 5.1 284 9.5 102230 40
2011-04-05 08:28:49 51°11.185 2°41.575 5 263 9.5 102230 42
2011-04-05 08:28:54 51°11.185 2°41.574 7 279 9.5 102230 42
2011-04-05 08:28:59 51°11.185 2°41.573 5.6 263 9.6 102230 40
2011-04-05 08:29:03 51°11.185 2°41.572 5 280 9.6 102230 40
2011-04-05 08:29:09 51°11.185 2°41.571 6.5 269 9.6 102230 40
2011-04-05 08:29:14 51°11.185 2°41.57 5.7 279 9.6 102230 40
2011-04-05 08:29:19 51°11.185 2°41.569 8.7 269 9.6 102230 42
2011-04-05 08:29:24 51°11.185 2°41.568 7.2 280 9.6 102230 42
2011-04-05 08:29:29 51°11.185 2°41.568 8.1 270 9.6 102240 45
2011-04-05 08:29:34 51°11.185 2°41.567 7.6 281 9.6 102240 45
2011-04-05 08:29:39 51°11.186 2°41.566 5.6 265 9.6 102240 40
2011-04-05 08:29:44 51°11.186 2°41.565 5.6 281 9.6 102240 40
2011-04-05 08:29:49 51°11.186 2°41.564 7 268 9.6 102240 40
2011-04-05 08:29:54 51°11.186 2°41.564 5.8 283 9.6 102240 40
2011-04-05 08:29:59 51°11.186 2°41.563 6.3 265 9.6 102230 39
2011-04-05 08:30:04 51°11.186 2°41.562 6 282 9.6 102230 39
2011-04-05 08:30:09 51°11.187 2°41.562 5.3 264 9.5 102230 42
2011-04-05 08:30:14 51°11.187 2°41.561 6.3 -999 9.5 102230 42
2011-04-05 08:30:19 51°11.187 2°41.56 5.6 265 9.5 102230 42
2011-04-05 08:30:24 51°11.187 2°41.559 5.7 286 9.5 102230 42
2011-04-05 08:30:29 51°11.187 2°41.559 8 264 9.5 102230 42
2011-04-05 08:30:34 51°11.187 2°41.558 8.7 280 9.5 102230 42
2011-04-05 08:30:39 51°11.188 2°41.557 6.6 265 9.5 102230 40
2011-04-05 08:30:43 51°11.188 2°41.556 6.1 279 9.5 102230 40
2011-04-05 08:30:49 51°11.188 2°41.556 6.5 265 9.6 102230 40
2011-04-05 08:30:54 51°11.188 2°41.555 7.2 283 9.6 102230 40
2011-04-05 08:30:59 51°11.188 2°41.554 6.2 264 9.5 102240 41
2011-04-05 08:31:04 51°11.189 2°41.553 5.5 285 9.5 102240 41
2011-04-05 08:31:09 51°11.189 2°41.553 6.6 266 9.6 102230 40
2011-04-05 08:31:15 51°11.189 2°41.552 6.8 280 9.6 102230 40
2011-04-05 08:31:19 51°11.189 2°41.551 6.9 265 9.6 102230 40
2011-04-05 08:31:24 51°11.189 2°41.55 7.6 80 9.6 102230 40
2011-04-05 08:31:29 51°11.19 2°41.55 3.3 269 9.6 102230 39
2011-04-05 08:31:34 51°11.19 2°41.549 7.3 279 9.6 102230 39
2011-04-05 08:31:39 51°11.19 2°41.548 6.8 262 9.6 102230 42
2011-04-05 08:31:43 51°11.19 2°41.547 6.9 281 9.6 102230 42
2011-04-05 08:31:49 51°11.19 2°41.547 8.8 267 9.6 102230 41
2011-04-05 08:31:54 51°11.191 2°41.546 5.8 286 9.6 102230 41
2011-04-05 08:31:59 51°11.191 2°41.545 6.8 262 9.6 102230 40